#timestamp,LO_Frequency,Hit,StdDev 
1526533215.7,286047001.6,N
1526533235.5,286047001.4,N
1526533255.3,286047003.9,N
1526533275.2,286047001.7,N
1526533295.0,286047004.0,N
1526533295.9,286047004.0,N
1526533315.8,286047003.9,N
1526533335.6,286047003.9,N
1526533355.4,286047004.3,N
1526533375.3,286047001.6,N
1526533395.1,286047002.0,N
1526533396.0,286047002.0,N
1526533415.8,286047002.0,N
1526533435.7,286047002.3,N
1526533455.5,286047004.0,N
1526533475.4,286047005.8,Y
1526533495.2,286047001.8,P
1526533515.0,286047004.3,P
1526533515.9,286047004.3,P
1526533535.8,286047003.1,N
1526533555.6,286047001.4,N
1526533575.4,286047004.1,Y
1526533595.3,286047000.7,P
1526533615.1,286047001.6,N
1526533635.9,286047002.0,N
1526533655.7,286047003.9,Y
1526533675.5,286047000.0,P
1526533695.4,286047002.3,N
1526533715.2,286047000.4,N
1526533735.1,286047000.5,N
1526533736.0,286047000.5,N
1526533755.8,286046998.2,N
1526533775.6,286046996.5,N
1526533795.5,286047001.1,N
1526533815.3,286047000.6,N
1526533835.1,286047000.8,N
1526533855.9,286047000.0,N
1526533875.7,286046998.8,N
1526533895.6,286046998.4,N
1526533915.4,286046998.7,N
1526533935.2,286047000.8,N
1526533955.1,286046999.5,N
1526533956.0,286046999.5,N
1526533975.8,286046999.6,N
1526533995.7,286046998.3,N
1526534015.5,286046996.6,N
1526534035.3,286046996.6,N
1526534055.2,286046996.9,N
1526534075.9,286046998.6,N
1526534095.7,286046998.9,N
1526534115.6,286046998.7,N
1526534135.4,286046999.0,N
1526534155.2,286046997.4,N
1526534175.1,286046996.9,N
1526534176.0,286046996.9,N
1526534195.8,286046997.3,N
1526534215.7,286046999.0,N
1526534235.5,286046999.6,N
1526534255.3,286046999.0,N
1526534275.2,286046996.5,N
1526534295.0,286046998.3,N
1526534295.9,286046998.3,N
1526534315.8,286046997.3,N
1526534335.6,286046998.8,N
1526534355.4,286046996.5,N
1526534375.3,286046998.7,N
1526534395.1,286047001.1,N
1526534415.8,286047002.3,N
1526534435.7,286047002.7,N
1526534455.5,286047002.6,N
1526534475.4,286047000.4,N
1526534495.2,286047000.2,N
1526534515.0,286047000.2,N
1526534515.9,286047000.2,N
1526534535.8,286046999.7,N
1526534555.6,286047001.3,N
1526534575.5,286046999.7,N
1526534595.3,286046999.9,N
1526534615.1,286046999.9,N
1526534635.9,286047002.5,N
1526534655.7,286047000.9,N
1526534675.5,286046998.1,N
1526534695.4,286046998.7,N
1526534715.2,286047000.9,N
1526534735.0,286047001.1,N
1526534736.0,286047001.1,N
1526534755.8,286047000.1,N
1526534775.6,286047001.9,N
1526534795.5,286047000.1,N
1526534815.3,286047002.0,N
1526534835.1,286047002.7,N
1526534855.9,286047001.5,N
1526534875.7,286047001.6,N
1526534895.6,286047000.3,N
1526534915.4,286047000.1,N
1526534935.2,286047002.3,N
1526534955.1,286046999.7,N
1526534956.0,286046999.7,N
1526534975.8,286047002.3,N
1526534995.7,286047002.8,N
1526535015.5,286047000.6,N
1526535035.3,286047002.6,N
1526535055.2,286047000.3,N
1526535075.0,286046998.1,N
1526535075.9,286046998.1,N
1526535095.8,286047000.5,N
1526535115.6,286046999.7,N
1526535135.4,286047002.7,N
1526535155.3,286046999.9,N
1526535175.1,286047002.5,N
1526535195.9,286046999.9,N
1526535215.7,286047000.8,N
1526535235.5,286046998.4,N
1526535255.4,286047000.5,N
1526535275.2,286047000.7,N
1526535295.0,286047002.8,N
1526535295.9,286047002.8,N
1526535315.8,286046999.8,N
1526535335.6,286047000.6,N
1526535355.5,286047000.1,N
1526535375.3,286046999.7,N
1526535395.1,286047002.8,N
1526535415.9,286047000.2,N
1526535435.7,286047002.1,N
1526535455.6,286047002.7,N
1526535475.4,286047002.8,N
1526535495.2,286047002.3,N
1526535515.1,286047000.0,N
1526535516.0,286047000.0,N
1526535535.8,286047002.3,N
1526535555.6,286047001.3,N
1526535575.5,286047002.4,N
1526535595.3,286047000.9,N
1526535615.2,286047002.3,N
1526535635.9,286047001.0,N
1526535655.7,286046998.6,N
1526535675.6,286046999.0,N
1526535695.4,286046998.8,N
1526535715.2,286046999.6,N
1526535735.1,286046998.9,N
1526535736.0,286046998.9,N
1526535755.8,286046998.9,N
1526535775.7,286047000.7,N
1526535795.5,286046999.8,N
1526535815.3,286046998.1,N
1526535835.2,286047002.2,N
1526535855.0,286047000.4,N
1526535855.9,286047000.4,N
1526535875.8,286046998.5,N
1526535895.6,286047002.0,N
1526535915.4,286047004.3,N
1526535935.3,286047001.5,N
1526535955.1,286047002.8,N
1526535975.9,286047001.1,N
1526535995.7,286046998.6,N
1526536015.5,286047002.7,N
1526536035.4,286047000.9,N
1526536055.2,286047000.4,N
1526536075.0,286046998.2,N
1526536075.9,286046998.2,N
1526536095.8,286046998.6,N
1526536115.6,286046999.9,N
1526536135.5,286047001.0,N
1526536155.3,286046999.8,N
1526536175.1,286047002.3,N
1526536195.9,286047000.0,N
1526536215.7,286047000.4,N
1526536235.6,286047000.5,N
1526536255.4,286047000.0,N
1526536275.2,286047000.0,N
1526536295.1,286047002.6,N
1526536296.0,286047002.6,N
1526536315.8,286047000.2,N
1526536335.6,286047000.5,N
1526536355.5,286047002.3,N
1526536375.3,286047002.6,N
1526536395.2,286047000.2,N
1526536415.9,286047000.9,N
1526536435.7,286047000.3,N
1526536455.6,286047002.2,N
1526536475.4,286047000.4,N
1526536495.2,286047000.5,N
1526536515.1,286047000.2,N
1526536516.0,286047000.2,N
1526536535.8,286047001.0,N
1526536555.7,286047000.6,N
1526536575.5,286047001.0,N
1526536595.3,286047001.1,N
1526536615.2,286047000.1,N
1526536635.0,286047001.7,N
1526536635.9,286047001.7,N
1526536655.8,286047003.6,Y
1526536675.6,286047002.7,P
1526536695.4,286047002.4,N
1526536715.3,286047002.4,N
1526536735.1,286047002.8,Y
1526536755.8,286047002.1,P
1526536775.7,286047001.7,P
1526536795.5,286047003.9,P
